Year,Month,Day,Hour,Minute,Value (Times are PST for temperature in C)
2015,03,18,00,00,5.30
2015,03,18,00,01,5.30
2015,03,18,00,02,5.40
2015,03,18,00,03,5.50
2015,03,18,00,04,5.50
2015,03,18,00,05,5.50
2015,03,18,00,06,5.50
2015,03,18,00,07,5.60
2015,03,18,00,08,5.60
2015,03,18,00,09,5.60
2015,03,18,00,10,5.60
2015,03,18,00,11,5.60
2015,03,18,00,12,5.60
2015,03,18,00,13,5.60
2015,03,18,00,14,5.50
2015,03,18,00,15,5.50
2015,03,18,00,16,5.50
2015,03,18,00,17,5.50
2015,03,18,00,18,5.40
2015,03,18,00,19,5.40
2015,03,18,00,20,5.40
2015,03,18,00,21,5.30
2015,03,18,00,22,5.30
2015,03,18,00,23,5.30
2015,03,18,00,24,5.30
2015,03,18,00,25,5.30
2015,03,18,00,26,5.20
2015,03,18,00,27,5.20
2015,03,18,00,28,5.20
2015,03,18,00,29,5.10
2015,03,18,00,30,5.10
2015,03,18,00,31,5.00
2015,03,18,00,32,4.90
2015,03,18,00,33,4.80
2015,03,18,00,34,4.80
2015,03,18,00,35,4.80
2015,03,18,00,36,4.80
2015,03,18,00,37,4.90
2015,03,18,00,38,4.90
2015,03,18,00,39,4.90
2015,03,18,00,40,4.90
2015,03,18,00,41,5.00
2015,03,18,00,42,5.10
2015,03,18,00,43,5.10
2015,03,18,00,44,5.20
2015,03,18,00,45,5.20
2015,03,18,00,46,5.30
2015,03,18,00,47,5.30
2015,03,18,00,48,5.40
2015,03,18,00,49,5.50
2015,03,18,00,50,5.60
2015,03,18,00,51,5.60
2015,03,18,00,52,5.60
2015,03,18,00,53,5.50
2015,03,18,00,54,5.30
2015,03,18,00,55,5.20
2015,03,18,00,56,5.20
2015,03,18,00,57,5.10
2015,03,18,00,58,5.10
2015,03,18,00,59,5.00
2015,03,18,01,00,5.00
2015,03,18,01,01,4.90
2015,03,18,01,02,4.90
2015,03,18,01,03,4.80
2015,03,18,01,04,4.80
2015,03,18,01,05,4.70
2015,03,18,01,06,4.70
2015,03,18,01,07,4.60
2015,03,18,01,08,4.60
2015,03,18,01,09,4.50
2015,03,18,01,10,4.50
2015,03,18,01,11,4.50
2015,03,18,01,12,4.40
2015,03,18,01,13,4.40
2015,03,18,01,14,4.40
2015,03,18,01,15,4.40
2015,03,18,01,16,4.40
2015,03,18,01,17,4.40
2015,03,18,01,18,4.40
2015,03,18,01,19,4.40
2015,03,18,01,20,4.30
2015,03,18,01,21,4.30
2015,03,18,01,22,4.20
2015,03,18,01,23,4.20
2015,03,18,01,24,4.10
2015,03,18,01,25,4.10
2015,03,18,01,26,4.00
2015,03,18,01,27,4.00
2015,03,18,01,28,4.00
2015,03,18,01,29,4.00
2015,03,18,01,30,4.00
2015,03,18,01,31,4.00
2015,03,18,01,32,4.00
2015,03,18,01,33,4.00
2015,03,18,01,34,4.00
2015,03,18,01,35,4.00
2015,03,18,01,36,3.90
2015,03,18,01,37,3.90
2015,03,18,01,38,3.90
2015,03,18,01,39,3.90
2015,03,18,01,40,3.90
2015,03,18,01,41,3.90
2015,03,18,01,42,3.90
2015,03,18,01,43,4.00
2015,03,18,01,44,4.10
2015,03,18,01,45,4.10
2015,03,18,01,46,4.10
2015,03,18,01,47,4.20
2015,03,18,01,48,4.20
2015,03,18,01,49,4.20
2015,03,18,01,50,4.20
2015,03,18,01,51,4.10
2015,03,18,01,52,4.10
2015,03,18,01,53,4.10
2015,03,18,01,54,4.10
2015,03,18,01,55,4.10
2015,03,18,01,56,4.10
2015,03,18,01,57,4.20
2015,03,18,01,58,4.20
2015,03,18,01,59,4.10
2015,03,18,02,00,4.10
2015,03,18,02,01,4.10
2015,03,18,02,02,4.10
2015,03,18,02,03,4.10
2015,03,18,02,04,4.20
2015,03,18,02,05,4.20
2015,03,18,02,06,4.30
2015,03,18,02,07,4.30
2015,03,18,02,08,4.30
2015,03,18,02,09,4.30
2015,03,18,02,10,4.40
2015,03,18,02,11,4.40
2015,03,18,02,12,4.40
2015,03,18,02,13,4.40
2015,03,18,02,14,4.40
2015,03,18,02,15,4.40
2015,03,18,02,16,4.40
2015,03,18,02,17,4.40
2015,03,18,02,18,4.40
2015,03,18,02,19,4.40
2015,03,18,02,20,4.40
2015,03,18,02,21,4.40
2015,03,18,02,22,4.40
2015,03,18,02,23,4.40
2015,03,18,02,24,4.30
2015,03,18,02,25,4.30
2015,03,18,02,26,4.30
2015,03,18,02,27,4.30
2015,03,18,02,28,4.30
2015,03,18,02,29,4.20
2015,03,18,02,30,4.10
2015,03,18,02,31,4.10
2015,03,18,02,32,4.00
2015,03,18,02,33,4.00
2015,03,18,02,34,3.90
2015,03,18,02,35,3.90
2015,03,18,02,36,3.90
2015,03,18,02,37,3.90
2015,03,18,02,38,3.90
2015,03,18,02,39,3.90
2015,03,18,02,40,3.90
2015,03,18,02,41,3.90
2015,03,18,02,42,4.00
2015,03,18,02,43,4.00
2015,03,18,02,44,4.00
2015,03,18,02,45,4.00
2015,03,18,02,46,4.00
2015,03,18,02,47,4.00
2015,03,18,02,48,3.90
2015,03,18,02,49,3.90
2015,03,18,02,50,3.80
2015,03,18,02,51,3.80
2015,03,18,02,52,3.80
2015,03,18,02,53,3.70
2015,03,18,02,54,3.80
2015,03,18,02,55,3.80
2015,03,18,02,56,3.80
2015,03,18,02,57,3.80
2015,03,18,02,58,3.80
2015,03,18,02,59,3.80
2015,03,18,03,00,3.80
2015,03,18,03,01,3.80
2015,03,18,03,02,3.80
2015,03,18,03,03,3.80
2015,03,18,03,04,3.70
2015,03,18,03,05,3.70
2015,03,18,03,06,3.70
2015,03,18,03,07,3.70
2015,03,18,03,08,3.70
2015,03,18,03,09,3.70
2015,03,18,03,10,3.70
2015,03,18,03,11,3.70
2015,03,18,03,12,3.70
2015,03,18,03,13,3.70
2015,03,18,03,14,3.70
2015,03,18,03,15,3.70
2015,03,18,03,16,3.70
2015,03,18,03,17,3.70
2015,03,18,03,18,3.70
2015,03,18,03,19,3.70
2015,03,18,03,20,3.70
2015,03,18,03,21,3.70
2015,03,18,03,22,3.70
2015,03,18,03,23,3.70
2015,03,18,03,24,3.60
2015,03,18,03,25,3.70
2015,03,18,03,26,3.70
2015,03,18,03,27,3.70
2015,03,18,03,28,3.60
2015,03,18,03,29,3.60
2015,03,18,03,30,3.60
2015,03,18,03,31,3.60
2015,03,18,03,32,3.60
2015,03,18,03,33,3.60
2015,03,18,03,34,3.60
2015,03,18,03,35,3.60
2015,03,18,03,36,3.60
2015,03,18,03,37,3.60
2015,03,18,03,38,3.60
2015,03,18,03,39,3.60
2015,03,18,03,40,3.50
2015,03,18,03,41,3.50
2015,03,18,03,42,3.50
2015,03,18,03,43,3.50
2015,03,18,03,44,3.50
2015,03,18,03,45,3.60
2015,03,18,03,46,3.60
2015,03,18,03,47,3.60
2015,03,18,03,48,3.60
2015,03,18,03,49,3.60
2015,03,18,03,50,3.60
2015,03,18,03,51,3.50
2015,03,18,03,52,3.50
2015,03,18,03,53,3.50
2015,03,18,03,54,3.50
2015,03,18,03,55,3.60
2015,03,18,03,56,3.60
2015,03,18,03,57,3.60
2015,03,18,03,58,3.60
2015,03,18,03,59,3.60
2015,03,18,04,00,3.60
2015,03,18,04,01,3.60
2015,03,18,04,02,3.60
2015,03,18,04,03,3.60
2015,03,18,04,04,3.60
2015,03,18,04,05,3.50
2015,03,18,04,06,3.50
2015,03,18,04,07,3.40
2015,03,18,04,08,3.40
2015,03,18,04,09,3.40
2015,03,18,04,10,3.40
2015,03,18,04,11,3.40
2015,03,18,04,12,3.40
2015,03,18,04,13,3.40
2015,03,18,04,14,3.40
2015,03,18,04,15,3.50
2015,03,18,04,16,3.50
2015,03,18,04,17,3.50
2015,03,18,04,18,3.40
2015,03,18,04,19,3.40
2015,03,18,04,20,3.40
2015,03,18,04,21,3.40
2015,03,18,04,22,3.40
2015,03,18,04,23,3.40
2015,03,18,04,24,3.40
2015,03,18,04,25,3.40
2015,03,18,04,26,3.40
2015,03,18,04,27,3.40
2015,03,18,04,28,3.40
2015,03,18,04,29,3.40
2015,03,18,04,30,3.40
2015,03,18,04,31,3.40
2015,03,18,04,32,3.40
2015,03,18,04,33,3.40
2015,03,18,04,34,3.30
2015,03,18,04,35,3.30
2015,03,18,04,36,3.30
2015,03,18,04,37,3.30
2015,03,18,04,38,3.30
2015,03,18,04,39,3.30
2015,03,18,04,40,3.30
2015,03,18,04,41,3.30
2015,03,18,04,42,3.30
2015,03,18,04,43,3.30
2015,03,18,04,44,3.30
2015,03,18,04,45,3.30
2015,03,18,04,46,3.30
2015,03,18,04,47,3.30
2015,03,18,04,48,3.30
2015,03,18,04,49,3.30
2015,03,18,04,50,3.40
2015,03,18,04,51,3.40
2015,03,18,04,52,3.40
2015,03,18,04,53,3.40
2015,03,18,04,54,3.40
2015,03,18,04,55,3.40
2015,03,18,04,56,3.40
2015,03,18,04,57,3.40
2015,03,18,04,58,3.40
2015,03,18,04,59,3.40
2015,03,18,05,00,3.40
2015,03,18,05,01,3.40
2015,03,18,05,02,3.40
2015,03,18,05,03,3.40
2015,03,18,05,04,3.40
2015,03,18,05,05,3.40
2015,03,18,05,06,3.30
2015,03,18,05,07,3.30
2015,03,18,05,08,3.30
2015,03,18,05,09,3.30
2015,03,18,05,10,3.30
2015,03,18,05,11,3.20
2015,03,18,05,12,3.20
2015,03,18,05,13,3.10
2015,03,18,05,14,3.10
2015,03,18,05,15,3.10
2015,03,18,05,16,3.10
2015,03,18,05,17,3.00
2015,03,18,05,18,3.00
2015,03,18,05,19,2.90
2015,03,18,05,20,2.90
2015,03,18,05,21,2.90
2015,03,18,05,22,2.80
2015,03,18,05,23,2.80
2015,03,18,05,24,2.80
2015,03,18,05,25,2.70
2015,03,18,05,26,2.70
2015,03,18,05,27,2.70
2015,03,18,05,28,2.70
2015,03,18,05,29,2.70
2015,03,18,05,30,2.70
2015,03,18,05,31,2.70
2015,03,18,05,32,2.70
2015,03,18,05,33,2.70
2015,03,18,05,34,2.70
2015,03,18,05,35,2.70
2015,03,18,05,36,2.70
2015,03,18,05,37,2.70
2015,03,18,05,38,2.80
2015,03,18,05,39,2.80
2015,03,18,05,40,2.80
2015,03,18,05,41,2.80
2015,03,18,05,42,2.80
2015,03,18,05,43,2.80
2015,03,18,05,44,2.80
2015,03,18,05,45,2.80
2015,03,18,05,46,2.80
2015,03,18,05,47,2.80
2015,03,18,05,48,2.80
2015,03,18,05,49,2.80
2015,03,18,05,50,2.80
2015,03,18,05,51,2.80
2015,03,18,05,52,2.80
2015,03,18,05,53,2.80
2015,03,18,05,54,2.80
2015,03,18,05,55,2.80
2015,03,18,05,56,2.80
2015,03,18,05,57,2.80
2015,03,18,05,58,2.80
2015,03,18,05,59,2.80
2015,03,18,06,00,2.70
2015,03,18,06,01,2.70
2015,03,18,06,02,2.70
2015,03,18,06,03,2.70
2015,03,18,06,04,2.70
2015,03,18,06,05,2.70
2015,03,18,06,06,2.70
2015,03,18,06,07,2.70
2015,03,18,06,08,2.70
2015,03,18,06,09,2.70
2015,03,18,06,10,2.70
2015,03,18,06,11,2.70
2015,03,18,06,12,2.70
2015,03,18,06,13,2.70
2015,03,18,06,14,2.70
2015,03,18,06,15,2.70
2015,03,18,06,16,2.70
2015,03,18,06,17,2.80
2015,03,18,06,18,2.80
2015,03,18,06,19,2.80
2015,03,18,06,20,2.80
2015,03,18,06,21,2.80
2015,03,18,06,22,2.80
2015,03,18,06,23,2.70
2015,03,18,06,24,2.70
2015,03,18,06,25,2.70
2015,03,18,06,26,2.70
2015,03,18,06,27,2.70
2015,03,18,06,28,2.60
2015,03,18,06,29,2.60
2015,03,18,06,30,2.60
2015,03,18,06,31,2.60
2015,03,18,06,32,2.50
2015,03,18,06,33,2.50
2015,03,18,06,34,2.50
2015,03,18,06,35,2.40
2015,03,18,06,36,2.40
2015,03,18,06,37,2.40
2015,03,18,06,38,2.30
2015,03,18,06,39,2.30
2015,03,18,06,40,2.30
2015,03,18,06,41,2.20
2015,03,18,06,42,2.20
2015,03,18,06,43,2.20
2015,03,18,06,44,2.20
2015,03,18,06,45,2.20
2015,03,18,06,46,2.20
2015,03,18,06,47,2.20
2015,03,18,06,48,2.20
2015,03,18,06,49,2.20
2015,03,18,06,50,2.20
2015,03,18,06,51,2.20
2015,03,18,06,52,2.20
2015,03,18,06,53,2.20
2015,03,18,06,54,2.20
2015,03,18,06,55,2.20
2015,03,18,06,56,2.20
2015,03,18,06,57,2.20
2015,03,18,06,58,2.10
2015,03,18,06,59,2.10
2015,03,18,07,00,2.10
2015,03,18,07,01,2.10
2015,03,18,07,02,2.10
2015,03,18,07,03,2.10
2015,03,18,07,04,2.00
2015,03,18,07,05,2.00
2015,03,18,07,06,2.00
2015,03,18,07,07,1.90
2015,03,18,07,08,2.00
2015,03,18,07,09,2.00
2015,03,18,07,10,2.00
2015,03,18,07,11,2.00
2015,03,18,07,12,2.00
2015,03,18,07,13,2.00
2015,03,18,07,14,2.00
2015,03,18,07,15,1.90
2015,03,18,07,16,1.90
2015,03,18,07,17,1.90
2015,03,18,07,18,1.90
2015,03,18,07,19,1.90
2015,03,18,07,20,1.90
2015,03,18,07,21,1.90
2015,03,18,07,22,1.90
2015,03,18,07,23,1.90
2015,03,18,07,24,1.90
2015,03,18,07,25,1.90
2015,03,18,07,26,1.90
2015,03,18,07,27,1.90
2015,03,18,07,28,1.90
2015,03,18,07,29,1.90
2015,03,18,07,30,1.90
2015,03,18,07,31,1.90
2015,03,18,07,32,1.90
2015,03,18,07,33,1.80
2015,03,18,07,34,1.80
2015,03,18,07,35,1.70
2015,03,18,07,36,1.70
2015,03,18,07,37,1.70
2015,03,18,07,38,1.70
2015,03,18,07,39,1.70
2015,03,18,07,40,1.70
2015,03,18,07,41,1.70
2015,03,18,07,42,1.70
2015,03,18,07,43,1.70
2015,03,18,07,44,1.80
2015,03,18,07,45,1.80
2015,03,18,07,46,1.80
2015,03,18,07,47,1.90
2015,03,18,07,48,1.90
2015,03,18,07,49,1.90
2015,03,18,07,50,2.00
2015,03,18,07,51,2.00
2015,03,18,07,52,2.00
2015,03,18,07,53,2.00
2015,03,18,07,54,2.00
2015,03,18,07,55,2.00
2015,03,18,07,56,2.00
2015,03,18,07,57,2.00
2015,03,18,07,58,2.00
2015,03,18,07,59,1.90
2015,03,18,08,00,1.90
2015,03,18,08,01,1.90
2015,03,18,08,02,1.90
2015,03,18,08,03,1.90
2015,03,18,08,04,1.90
2015,03,18,08,05,1.80
2015,03,18,08,06,1.90
2015,03,18,08,07,1.90
2015,03,18,08,08,1.90
2015,03,18,08,09,2.00
2015,03,18,08,10,2.00
2015,03,18,08,11,2.00
2015,03,18,08,12,2.10
2015,03,18,08,13,2.20
2015,03,18,08,14,2.20
2015,03,18,08,15,2.30
2015,03,18,08,16,2.30
2015,03,18,08,17,2.40
2015,03,18,08,18,2.40
2015,03,18,08,19,2.50
2015,03,18,08,20,2.50
2015,03,18,08,21,2.60
2015,03,18,08,22,2.70
2015,03,18,08,23,2.70
2015,03,18,08,24,2.80
2015,03,18,08,25,2.80
2015,03,18,08,26,2.90
2015,03,18,08,27,2.90
2015,03,18,08,28,3.00
2015,03,18,08,29,3.00
2015,03,18,08,30,3.10
2015,03,18,08,31,3.20
2015,03,18,08,32,3.20
2015,03,18,08,33,3.30
2015,03,18,08,34,3.30
2015,03,18,08,35,3.30
2015,03,18,08,36,3.40
2015,03,18,08,37,3.40
2015,03,18,08,38,3.50
2015,03,18,08,39,3.60
2015,03,18,08,40,3.60
2015,03,18,08,41,3.70
2015,03,18,08,42,3.70
2015,03,18,08,43,3.80
2015,03,18,08,44,3.80
2015,03,18,08,45,3.90
2015,03,18,08,46,4.00
2015,03,18,08,47,4.00
2015,03,18,08,48,4.10
2015,03,18,08,49,4.20
2015,03,18,08,50,4.20
2015,03,18,08,51,4.30
2015,03,18,08,52,4.40
2015,03,18,08,53,4.50
2015,03,18,08,54,4.60
2015,03,18,08,55,4.70
2015,03,18,08,56,4.80
2015,03,18,08,57,5.00
2015,03,18,08,58,5.10
2015,03,18,08,59,5.20
2015,03,18,09,00,5.30
2015,03,18,09,01,5.30
2015,03,18,09,02,5.40
2015,03,18,09,03,5.50
2015,03,18,09,04,5.60
2015,03,18,09,05,5.70
2015,03,18,09,06,5.80
2015,03,18,09,07,5.80
2015,03,18,09,08,5.80
2015,03,18,09,09,5.80
2015,03,18,09,10,5.80
2015,03,18,09,11,5.80
2015,03,18,09,12,5.70
2015,03,18,09,13,5.70
2015,03,18,09,14,5.70
2015,03,18,09,15,5.70
2015,03,18,09,16,5.80
2015,03,18,09,17,5.80
2015,03,18,09,18,5.80
2015,03,18,09,19,5.80
2015,03,18,09,20,5.80
2015,03,18,09,21,5.80
2015,03,18,09,22,5.80
2015,03,18,09,23,5.80
2015,03,18,09,24,5.80
2015,03,18,09,25,5.80
2015,03,18,09,26,5.80
2015,03,18,09,27,5.80
2015,03,18,09,28,5.80
2015,03,18,09,29,5.80
2015,03,18,09,30,5.80
2015,03,18,09,31,5.80
2015,03,18,09,32,5.80
2015,03,18,09,33,5.90
2015,03,18,09,34,5.90
2015,03,18,09,35,5.90
2015,03,18,09,36,5.90
2015,03,18,09,37,5.90
2015,03,18,09,38,5.90
2015,03,18,09,39,6.00
2015,03,18,09,40,6.00
2015,03,18,09,41,6.10
2015,03,18,09,42,6.10
2015,03,18,09,43,6.20
2015,03,18,09,44,6.30
2015,03,18,09,45,6.30
2015,03,18,09,46,6.30
2015,03,18,09,47,6.40
2015,03,18,09,48,6.40
2015,03,18,09,49,6.40
2015,03,18,09,50,6.50
2015,03,18,09,51,6.50
2015,03,18,09,52,6.60
2015,03,18,09,53,6.60
2015,03,18,09,54,6.70
2015,03,18,09,55,6.80
2015,03,18,09,56,6.90
2015,03,18,09,57,7.00
2015,03,18,09,58,7.10
2015,03,18,09,59,7.20
2015,03,18,10,00,7.30
2015,03,18,10,01,7.40
2015,03,18,10,02,7.50
2015,03,18,10,03,7.70
2015,03,18,10,04,7.80
2015,03,18,10,05,7.90
2015,03,18,10,06,8.10
2015,03,18,10,07,8.20
2015,03,18,10,08,8.20
2015,03,18,10,09,8.30
2015,03,18,10,10,8.30
2015,03,18,10,11,8.40
2015,03,18,10,12,8.50
2015,03,18,10,13,8.60
2015,03,18,10,14,8.70
2015,03,18,10,15,8.80
2015,03,18,10,16,8.80
2015,03,18,10,17,9.00
2015,03,18,10,18,9.10
2015,03,18,10,19,9.20
2015,03,18,10,20,9.30
2015,03,18,10,21,9.40
2015,03,18,10,22,9.50
2015,03,18,10,23,9.60
2015,03,18,10,24,9.70
2015,03,18,10,25,9.80
2015,03,18,10,26,9.90
2015,03,18,10,27,9.90
2015,03,18,10,28,10.00
2015,03,18,10,29,10.10
2015,03,18,10,30,10.20
2015,03,18,10,31,10.30
2015,03,18,10,32,10.40
2015,03,18,10,33,10.50
2015,03,18,10,34,10.60
2015,03,18,10,35,10.70
2015,03,18,10,36,10.80
2015,03,18,10,37,10.80
2015,03,18,10,38,10.90
2015,03,18,10,39,11.00
2015,03,18,10,40,11.10
2015,03,18,10,41,11.10
2015,03,18,10,42,11.20
2015,03,18,10,43,11.20
2015,03,18,10,44,11.20
2015,03,18,10,45,11.30
2015,03,18,10,46,11.40
2015,03,18,10,47,11.40
2015,03,18,10,48,11.50
2015,03,18,10,49,11.50
2015,03,18,10,50,11.60
2015,03,18,10,51,11.70
2015,03,18,10,52,11.80
2015,03,18,10,53,12.00
2015,03,18,10,54,12.00
2015,03,18,10,55,12.00
2015,03,18,10,56,12.00
2015,03,18,10,57,12.00
2015,03,18,10,58,12.10
2015,03,18,10,59,12.10
2015,03,18,11,00,12.20
2015,03,18,11,01,12.20
2015,03,18,11,02,12.30
2015,03,18,11,03,12.40
2015,03,18,11,04,12.50
2015,03,18,11,05,12.60
2015,03,18,11,06,12.70
2015,03,18,11,07,12.70
2015,03,18,11,08,12.80
2015,03,18,11,09,12.90
2015,03,18,11,10,12.90
2015,03,18,11,11,12.90
2015,03,18,11,12,12.90
2015,03,18,11,13,12.80
2015,03,18,11,14,12.70
2015,03,18,11,15,12.70
2015,03,18,11,16,12.70
2015,03,18,11,17,12.70
2015,03,18,11,18,12.60
2015,03,18,11,19,12.60
2015,03,18,11,20,12.50
2015,03,18,11,21,12.50
2015,03,18,11,22,12.40
2015,03,18,11,23,12.30
2015,03,18,11,24,12.30
2015,03,18,11,25,12.30
2015,03,18,11,26,12.20
2015,03,18,11,27,12.10
2015,03,18,11,28,12.00
2015,03,18,11,29,12.00
2015,03,18,11,30,11.90
2015,03,18,11,31,11.80
2015,03,18,11,32,11.80
2015,03,18,11,33,11.80
2015,03,18,11,34,11.80
2015,03,18,11,35,11.90
2015,03,18,11,36,12.00
2015,03,18,11,37,12.10
2015,03,18,11,38,12.30
2015,03,18,11,39,12.30
2015,03,18,11,40,12.40
2015,03,18,11,41,12.50
2015,03,18,11,42,12.50
2015,03,18,11,43,12.40
2015,03,18,11,44,12.40
2015,03,18,11,45,12.40
2015,03,18,11,46,12.40
2015,03,18,11,47,12.40
2015,03,18,11,48,12.40
2015,03,18,11,49,12.40
2015,03,18,11,50,12.40
2015,03,18,11,51,12.40
2015,03,18,11,52,12.50
2015,03,18,11,53,12.60
2015,03,18,11,54,12.70
2015,03,18,11,55,12.80
2015,03,18,11,56,13.00
2015,03,18,11,57,13.10
2015,03,18,11,58,13.10
2015,03,18,11,59,13.00
2015,03,18,12,00,12.90
2015,03,18,12,01,12.90
2015,03,18,12,02,12.90
2015,03,18,12,03,12.80
2015,03,18,12,04,12.80
2015,03,18,12,05,12.70
2015,03,18,12,06,12.70
2015,03,18,12,07,12.70
2015,03,18,12,08,12.70
2015,03,18,12,09,12.60
2015,03,18,12,10,12.50
2015,03,18,12,11,12.50
2015,03,18,12,12,12.40
2015,03,18,12,13,12.50
2015,03,18,12,14,12.60
2015,03,18,12,15,12.60
2015,03,18,12,16,12.60
2015,03,18,12,17,12.70
2015,03,18,12,18,12.80
2015,03,18,12,19,12.90
2015,03,18,12,20,12.90
2015,03,18,12,21,12.90
2015,03,18,12,22,12.80
2015,03,18,12,23,12.90
2015,03,18,12,24,13.00
2015,03,18,12,25,13.10
2015,03,18,12,26,13.10
2015,03,18,12,27,13.10
2015,03,18,12,28,13.10
2015,03,18,12,29,13.20
2015,03,18,12,30,13.20
2015,03,18,12,31,13.00
2015,03,18,12,32,12.90
2015,03,18,12,33,12.80
2015,03,18,12,34,12.60
2015,03,18,12,35,12.60
2015,03,18,12,36,12.60
2015,03,18,12,37,12.60
2015,03,18,12,38,12.60
2015,03,18,12,39,12.50
2015,03,18,12,40,12.50
2015,03,18,12,41,12.40
2015,03,18,12,42,12.40
2015,03,18,12,43,12.50
2015,03,18,12,44,12.60
2015,03,18,12,45,12.60
2015,03,18,12,46,12.60
2015,03,18,12,47,12.70
2015,03,18,12,48,12.90
2015,03,18,12,49,13.10
2015,03,18,12,50,13.20
2015,03,18,12,51,13.20
2015,03,18,12,52,13.10
2015,03,18,12,53,13.00
2015,03,18,12,54,13.00
2015,03,18,12,55,12.90
2015,03,18,12,56,12.90
2015,03,18,12,57,12.90
2015,03,18,12,58,12.90
2015,03,18,12,59,13.00
2015,03,18,13,00,13.10
2015,03,18,13,01,13.20
2015,03,18,13,02,13.20
2015,03,18,13,03,13.20
2015,03,18,13,04,13.10
2015,03,18,13,05,13.00
2015,03,18,13,06,13.00
2015,03,18,13,07,13.00
2015,03,18,13,08,13.00
2015,03,18,13,09,13.00
2015,03,18,13,10,12.90
2015,03,18,13,11,13.00
2015,03,18,13,12,13.00
2015,03,18,13,13,13.20
2015,03,18,13,14,13.30
2015,03,18,13,15,13.30
2015,03,18,13,16,13.40
2015,03,18,13,17,13.30
2015,03,18,13,18,13.20
2015,03,18,13,19,13.20
2015,03,18,13,20,13.20
2015,03,18,13,21,13.10
2015,03,18,13,22,13.00
2015,03,18,13,23,12.90
2015,03,18,13,24,12.90
2015,03,18,13,25,12.80
2015,03,18,13,26,12.70
2015,03,18,13,27,12.70
2015,03,18,13,28,12.70
2015,03,18,13,29,12.80
2015,03,18,13,30,12.80
2015,03,18,13,31,12.80
2015,03,18,13,32,12.90
2015,03,18,13,33,13.00
2015,03,18,13,34,13.10
2015,03,18,13,35,13.20
2015,03,18,13,36,13.30
2015,03,18,13,37,13.30
2015,03,18,13,38,13.30
2015,03,18,13,39,13.20
2015,03,18,13,40,13.20
2015,03,18,13,41,13.30
2015,03,18,13,42,13.40
2015,03,18,13,43,13.50
2015,03,18,13,44,13.60
2015,03,18,13,45,13.50
2015,03,18,13,46,13.40
2015,03,18,13,47,13.40
2015,03,18,13,48,13.40
2015,03,18,13,49,13.30
2015,03,18,13,50,13.30
2015,03,18,13,51,13.40
2015,03,18,13,52,13.50
2015,03,18,13,53,13.60
2015,03,18,13,54,13.70
2015,03,18,13,55,13.70
2015,03,18,13,56,13.70
2015,03,18,13,57,13.70
2015,03,18,13,58,13.60
2015,03,18,13,59,13.50
2015,03,18,14,00,13.40
2015,03,18,14,01,13.30
2015,03,18,14,02,13.30
2015,03,18,14,03,13.30
2015,03,18,14,04,13.20
2015,03,18,14,05,13.20
2015,03,18,14,06,13.20
2015,03,18,14,07,13.30
2015,03,18,14,08,13.30
2015,03,18,14,09,13.50
2015,03,18,14,10,13.60
2015,03,18,14,11,13.70
2015,03,18,14,12,13.80
2015,03,18,14,13,13.90
2015,03,18,14,14,13.90
2015,03,18,14,15,13.90
2015,03,18,14,16,13.90
2015,03,18,14,17,13.90
2015,03,18,14,18,13.80
2015,03,18,14,19,13.70
2015,03,18,14,20,13.60
2015,03,18,14,21,13.50
2015,03,18,14,22,13.40
2015,03,18,14,23,13.30
2015,03,18,14,24,13.30
2015,03,18,14,25,13.30
2015,03,18,14,26,13.30
2015,03,18,14,27,13.30
2015,03,18,14,28,13.40
2015,03,18,14,29,13.50
2015,03,18,14,30,13.60
2015,03,18,14,31,13.70
2015,03,18,14,32,13.60
2015,03,18,14,33,13.50
2015,03,18,14,34,13.40
2015,03,18,14,35,13.30
2015,03,18,14,36,13.30
2015,03,18,14,37,13.30
2015,03,18,14,38,13.30
2015,03,18,14,39,13.30
2015,03,18,14,40,13.30
2015,03,18,14,41,13.30
2015,03,18,14,42,13.30
2015,03,18,14,43,13.40
2015,03,18,14,44,13.60
2015,03,18,14,45,13.70
2015,03,18,14,46,13.90
2015,03,18,14,47,14.00
2015,03,18,14,48,14.20
2015,03,18,14,49,14.30
2015,03,18,14,50,14.50
2015,03,18,14,51,14.70
2015,03,18,14,52,14.80
2015,03,18,14,53,14.70
2015,03,18,14,54,14.70
2015,03,18,14,55,14.80
2015,03,18,14,56,14.80
2015,03,18,14,57,14.80
2015,03,18,14,58,14.80
2015,03,18,14,59,14.80
2015,03,18,15,00,14.80
2015,03,18,15,01,14.80
2015,03,18,15,02,14.80
2015,03,18,15,03,14.80
2015,03,18,15,04,14.80
2015,03,18,15,05,14.70
2015,03,18,15,06,14.50
2015,03,18,15,07,14.40
2015,03,18,15,08,14.40
2015,03,18,15,09,14.30
2015,03,18,15,10,14.20
2015,03,18,15,11,14.00
2015,03,18,15,12,13.90
2015,03,18,15,13,13.70
2015,03,18,15,14,13.50
2015,03,18,15,15,13.30
2015,03,18,15,16,13.20
2015,03,18,15,17,13.00
2015,03,18,15,18,12.90
2015,03,18,15,19,12.80
2015,03,18,15,20,12.80
2015,03,18,15,21,12.80
2015,03,18,15,22,12.80
2015,03,18,15,23,12.80
2015,03,18,15,24,12.80
2015,03,18,15,25,12.80
2015,03,18,15,26,12.80
2015,03,18,15,27,12.80
2015,03,18,15,28,12.80
2015,03,18,15,29,12.70
2015,03,18,15,30,12.70
2015,03,18,15,31,12.70
2015,03,18,15,32,12.60
2015,03,18,15,33,12.60
2015,03,18,15,34,12.60
2015,03,18,15,35,12.50
2015,03,18,15,36,12.40
2015,03,18,15,37,12.40
2015,03,18,15,38,12.30
2015,03,18,15,39,12.20
2015,03,18,15,40,12.20
2015,03,18,15,41,12.10
2015,03,18,15,42,12.00
2015,03,18,15,43,11.90
2015,03,18,15,44,11.90
2015,03,18,15,45,11.90
2015,03,18,15,46,11.80
2015,03,18,15,47,11.80
2015,03,18,15,48,11.80
2015,03,18,15,49,11.80
2015,03,18,15,50,11.80
2015,03,18,15,51,11.80
2015,03,18,15,52,11.80
2015,03,18,15,53,11.80
2015,03,18,15,54,11.90
2015,03,18,15,55,11.90
2015,03,18,15,56,11.90
2015,03,18,15,57,11.90
2015,03,18,15,58,12.00
2015,03,18,15,59,12.00
2015,03,18,16,00,12.10
2015,03,18,16,01,12.10
2015,03,18,16,02,12.20
2015,03,18,16,03,12.20
2015,03,18,16,04,12.20
2015,03,18,16,05,12.20
2015,03,18,16,06,12.20
2015,03,18,16,07,12.20
2015,03,18,16,08,12.20
2015,03,18,16,09,12.20
2015,03,18,16,10,12.20
2015,03,18,16,11,12.20
2015,03,18,16,12,12.20
2015,03,18,16,13,12.20
2015,03,18,16,14,12.20
2015,03,18,16,15,12.20
2015,03,18,16,16,12.10
2015,03,18,16,17,12.10
2015,03,18,16,18,12.10
2015,03,18,16,19,12.10
2015,03,18,16,20,12.10
2015,03,18,16,21,12.10
2015,03,18,16,22,12.00
2015,03,18,16,23,12.00
2015,03,18,16,24,11.90
2015,03,18,16,25,11.90
2015,03,18,16,26,11.90
2015,03,18,16,27,11.80
2015,03,18,16,28,11.80
2015,03,18,16,29,11.80
2015,03,18,16,30,11.80
2015,03,18,16,31,11.80
2015,03,18,16,32,11.80
2015,03,18,16,33,11.80
2015,03,18,16,34,11.80
2015,03,18,16,35,11.80
2015,03,18,16,36,11.80
2015,03,18,16,37,11.80
2015,03,18,16,38,11.80
2015,03,18,16,39,11.80
2015,03,18,16,40,11.80
2015,03,18,16,41,11.90
2015,03,18,16,42,11.90
2015,03,18,16,43,11.80
2015,03,18,16,44,11.80
2015,03,18,16,45,11.80
2015,03,18,16,46,11.90
2015,03,18,16,47,11.90
2015,03,18,16,48,12.00
2015,03,18,16,49,12.00
2015,03,18,16,50,12.00
2015,03,18,16,51,12.10
2015,03,18,16,52,12.10
2015,03,18,16,53,12.10
2015,03,18,16,54,12.10
2015,03,18,16,55,12.20
2015,03,18,16,56,12.20
2015,03,18,16,57,12.20
2015,03,18,16,58,12.20
2015,03,18,16,59,12.20
2015,03,18,17,00,12.30
2015,03,18,17,01,12.30
2015,03,18,17,02,12.30
2015,03,18,17,03,12.30
2015,03,18,17,04,12.30
2015,03,18,17,05,12.30
2015,03,18,17,06,12.30
2015,03,18,17,07,12.20
2015,03,18,17,08,12.20
2015,03,18,17,09,12.20
2015,03,18,17,10,12.10
2015,03,18,17,11,12.00
2015,03,18,17,12,11.90
2015,03,18,17,13,11.80
2015,03,18,17,14,11.70
2015,03,18,17,15,11.70
2015,03,18,17,16,11.60
2015,03,18,17,17,11.50
2015,03,18,17,18,11.40
2015,03,18,17,19,11.30
2015,03,18,17,20,11.30
2015,03,18,17,21,11.20
2015,03,18,17,22,11.20
2015,03,18,17,23,11.20
2015,03,18,17,24,11.30
2015,03,18,17,25,11.30
2015,03,18,17,26,11.30
2015,03,18,17,27,11.30
2015,03,18,17,28,11.30
2015,03,18,17,29,11.30
2015,03,18,17,30,11.30
2015,03,18,17,31,11.30
2015,03,18,17,32,11.30
2015,03,18,17,33,11.40
2015,03,18,17,34,11.40
2015,03,18,17,35,11.40
2015,03,18,17,36,11.40
2015,03,18,17,37,11.40
2015,03,18,17,38,11.40
2015,03,18,17,39,11.40
2015,03,18,17,40,11.40
2015,03,18,17,41,11.50
2015,03,18,17,42,11.50
2015,03,18,17,43,11.40
2015,03,18,17,44,11.40
2015,03,18,17,45,11.50
2015,03,18,17,46,11.50